VE1DX Weather Reports


Display with metric or nautical units.
time (UTC)temp
F
wind
direction
speed
MPH
gust
MPH
rain 1hr
in
rain 24hr
in
rain mn
in
humidity
%
barometer
mb
20260504031516 35 315 6.0 13.0 0.02 0.58 0.01 93 987.5
20260504031016 35 315 6.0 13.0 0.02 0.58 0.01 93 987.4
20260504030516 36 315 6.0 11.0 0.02 0.58 0.01 93 987.1
20260504030016 36 315 5.0 13.0 0.01 0.57 0.00 93 986.9
20260504025517 36 293 6.0 15.0 0.02 0.57 0.57 93 986.7
20260504025017 37 315 7.0 14.0 0.02 0.57 0.57 93 986.5
20260504024517 37 315 6.0 11.0 0.01 0.57 0.57 93 986.3
20260504024017 37 315 7.0 14.0 0.01 0.57 0.57 93 986.0
20260504023517 38 315 7.0 13.0 0.01 0.57 0.57 93 985.8
20260504023017 38 315 7.0 14.0 0.01 0.57 0.57 93 985.7
20260504022517 38 315 6.0 16.0 0.01 0.57 0.57 94 985.5
20260504022017 38 315 6.0 13.0 0.01 0.57 0.57 94 985.2
20260504021517 38 315 6.0 15.0 0.01 0.57 0.57 94 984.9
20260504021017 38 315 6.0 12.0 0.01 0.57 0.57 94 984.8
20260504020517 38 315 6.0 11.0 0.01 0.57 0.57 94 984.5
20260504020017 38 315 8.0 19.0 0.01 0.57 0.57 94 984.3
20260504015517 38 338 8.0 20.0 0.00 0.56 0.56 94 984.0
20260504015017 38 315 10.0 17.0 0.00 0.56 0.56 94 983.7
20260504014517 38 338 12.0 25.0 0.00 0.56 0.56 94 983.3
20260504014017 38 338 12.0 24.0 0.00 0.56 0.56 94 982.6
20260504013517 38 338 13.0 26.0 0.00 0.56 0.56 94 982.9
20260504013017 37 315 11.0 22.0 0.00 0.56 0.56 94 982.6
20260504012517 37 315 10.0 22.0 0.00 0.56 0.56 94 983.1
20260504012017 37 315 11.0 20.0 0.00 0.56 0.56 94 983.1
20260504011517 37 315 12.0 20.0 0.00 0.56 0.56 94 982.9
20260504011017 37 315 12.0 23.0 0.00 0.56 0.56 94 982.7
20260504010517 37 315 12.0 20.0 0.00 0.56 0.56 93 982.6
20260504010017 38 315 10.0 20.0 0.00 0.56 0.56 93 982.3
20260504005517 38 315 10.0 17.0 0.00 0.56 0.56 93 982.1
20260504005017 38 315 12.0 18.0 0.01 0.56 0.56 93 982.1
20260504004517 39 315 10.0 19.0 0.01 0.56 0.56 93 981.9
20260504004017 39 315 9.0 16.0 0.01 0.56 0.56 93 981.6
20260504003517 40 315 8.0 15.0 0.01 0.56 0.56 94 981.4
20260504003017 41 338 7.0 13.0 0.01 0.56 0.56 94 981.0
20260504002517 41 315 11.0 18.0 0.01 0.56 0.56 94 980.6
20260504002017 41 315 12.0 20.0 0.01 0.56 0.56 94 980.6
20260504001517 41 0 12.0 25.0 0.01 0.56 0.56 94 980.3
20260504001017 41 338 12.0 20.0 0.01 0.56 0.56 94 980.1
20260504000517 41 338 11.0 22.0 0.01 0.56 0.56 94 980.0
20260504000017 41 0 9.0 17.0 0.01 0.56 0.56 94 979.8
20260503235517 41 338 12.0 19.0 0.01 0.56 0.56 94 979.5
20260503235017 41 338 11.0 17.0 0.01 0.55 0.55 94 979.6
20260503234517 41 338 9.0 18.0 0.01 0.55 0.55 94 979.8
20260503234017 41 0 11.0 20.0 0.01 0.55 0.55 94 979.8
20260503233517 41 338 10.0 20.0 0.01 0.55 0.55 94 979.8
20260503233017 40 0 10.0 22.0 0.01 0.55 0.55 94 979.9
20260503232517 40 0 11.0 19.0 0.02 0.55 0.55 94 980.0
20260503232017 40 0 10.0 18.0 0.02 0.55 0.55 94 980.0
20260503231517 40 0 12.0 26.0 0.02 0.55 0.55 94 980.1
20260503231017 40 338 9.0 18.0 0.03 0.55 0.55 94 980.1
20260503230517 40 0 9.0 18.0 0.04 0.55 0.55 94 980.2
20260503230017 40 0 9.0 18.0 0.04 0.55 0.55 94 980.3
20260503225517 41 0 9.0 15.0 0.05 0.55 0.55 94 980.6
20260503225017 41 0 9.0 16.0 0.04 0.54 0.54 94 980.8
20260503224517 41 0 8.0 17.0 0.04 0.54 0.54 94 981.0
20260503224017 41 0 7.0 15.0 0.04 0.54 0.54 94 981.2
20260503223517 41 0 8.0 13.0 0.05 0.54 0.54 94 981.2
20260503223017 42 0 9.0 17.0 0.05 0.54 0.54 94 981.3
20260503222517 41 0 9.0 21.0 0.04 0.54 0.54 94 981.3
20260503222017 42 23 8.0 19.0 0.04 0.54 0.54 94 981.5
20260503221517 41 0 7.0 15.0 0.03 0.53 0.53 94 981.9
20260503221017 42 23 8.0 18.0 0.02 0.52 0.52 94 982.0
20260503220517 41 23 8.0 16.0 0.02 0.51 0.51 94 982.3
20260503220017 41 23 7.0 16.0 0.02 0.51 0.51 94 982.5
20260503215517 41 0 8.0 14.0 0.02 0.50 0.50 94 982.6
20260503215017 41 23 8.0 15.0 0.02 0.50 0.50 94 982.7
20260503214517 41 23 8.0 16.0 0.02 0.50 0.50 94 983.0
20260503214017 41 0 9.0 22.0 0.03 0.50 0.50 94 983.0
20260503213517 41 23 7.0 14.0 0.03 0.50 0.50 94 983.1
20260503213017 41 23 9.0 23.0 0.05 0.50 0.50 94 983.6
20260503212517 41 0 10.0 22.0 0.06 0.50 0.50 94 983.7
20260503212017 41 23 8.0 16.0 0.06 0.50 0.50 94 984.3
20260503211517 41 23 8.0 15.0 0.08 0.50 0.50 94 984.5
20260503211017 41 0 9.0 18.0 0.08 0.50 0.50 94 984.9
20260503210517 41 0 6.0 13.0 0.09 0.50 0.50 94 985.0
20260503210017 41 23 7.0 17.0 0.08 0.49 0.49 94 985.1
20260503205517 41 45 4.0 14.0 0.08 0.49 0.49 94 985.4
20260503205017 41 45 7.0 16.0 0.08 0.48 0.48 94 985.5
20260503204517 41 68 6.0 15.0 0.08 0.48 0.48 94 986.0
20260503204017 41 45 7.0 13.0 0.08 0.47 0.47 94 986.2
20260503203517 41 45 5.0 17.0 0.07 0.46 0.46 94 986.5
20260503203017 41 45 7.0 14.0 0.06 0.45 0.45 94 986.8
20260503202517 41 23 8.0 17.0 0.06 0.44 0.44 94 986.8
20260503202017 41 45 7.0 15.0 0.06 0.43 0.43 94 987.3
20260503201516 41 23 5.0 12.0 0.05 0.42 0.43 94 987.7
20260503201017 41 45 6.0 13.0 0.05 0.42 0.42 94 988.1
20260503200517 41 23 6.0 15.0 0.05 0.41 0.41 94 988.3
20260503200016 41 23 6.0 13.0 0.05 0.41 0.41 94 988.7
20260503195517 41 45 6.0 15.0 0.06 0.41 0.41 93 989.1
20260503195017 41 45 5.0 16.0 0.06 0.40 0.40 93 989.4
20260503194517 41 45 6.0 17.0 0.06 0.40 0.40 93 989.6
20260503194017 41 23 7.0 18.0 0.07 0.39 0.39 93 990.0
20260503193518 41 23 6.0 18.0 0.09 0.39 0.39 93 990.4
20260503193017 41 45 6.0 16.0 0.09 0.39 0.39 93 990.7
20260503192517 41 23 4.0 14.0 0.11 0.39 0.39 93 991.1
20260503192017 41 45 6.0 15.0 0.12 0.38 0.38 93 991.5
20260503191517 41 68 4.0 12.0 0.13 0.37 0.37 93 991.7
20260503191017 41 45 4.0 11.0 0.16 0.37 0.37 93 992.1
20260503190517 41 45 3.0 11.0 0.16 0.36 0.36 93 992.5
20260503190017 41 45 2.0 16.0 0.17 0.36 0.36 93 992.6
20260503185517 41 68 5.0 16.0 0.17 0.35 0.35 93 993.0
20260503185017 41 45 4.0 10.0 0.17 0.35 0.35 93 993.2
20260503184517 41 45 4.0 12.0 0.17 0.34 0.34 93 993.4
20260503184017 41 23 5.0 15.0 0.17 0.32 0.32 93 993.8
20260503183517 42 45 4.0 9.0 0.16 0.31 0.31 93 994.2
20260503183017 42 68 3.0 11.0 0.16 0.29 0.29 93 994.5
20260503182517 42 68 4.0 13.0 0.15 0.28 0.28 93 994.7
20260503182017 42 45 3.0 8.0 0.14 0.26 0.26 93 994.9
20260503181517 42 45 4.0 13.0 0.13 0.24 0.24 93 995.3
20260503181016 42 45 4.0 13.0 0.13 0.21 0.21 93 995.6
20260503180517 42 68 3.0 8.0 0.13 0.20 0.20 92 995.8
20260503180017 42 90 4.0 12.0 0.12 0.19 0.19 92 996.0
20260503175517 42 45 4.0 10.0 0.12 0.19 0.19 92 996.3
20260503175016 43 0 2.0 8.0 0.11 0.18 0.18 92 996.4
20260503174517 43 0 4.0 11.0 0.09 0.17 0.17 91 996.8
20260503174017 43 113 3.0 11.0 0.09 0.16 0.16 92 997.4
20260503173517 43 68 4.0 12.0 0.08 0.15 0.15 92 997.7
20260503173017 43 113 4.0 11.0 0.06 0.13 0.13 91 997.7
20260503172517 43 45 3.0 8.0 0.06 0.13 0.13 91 998.2
20260503172017 43 45 3.0 6.0 0.05 0.12 0.12 91 998.4
20260503171516 44 23 2.0 5.0 0.03 0.10 0.10 91 998.6
20260503171017 44 45 3.0 6.0 0.01 0.08 0.09 91 998.5
20260503170517 43 45 2.0 10.0 0.02 0.08 0.08 91 999.1
20260503150517 44 23 1.0 7.0 0.01 0.01 0.01 85 1005.1
20260503131017 46 0.0 1.0 0.00 0.00 0.00 74 1009.2
20260503130517 46 90 1.0 4.0 0.00 0.00 0.00 74 1009.2
20260503110517 43 0.0 2.0 0.00 0.00 0.00 82 1010.5
20260503081517 41 0.0 1.0 0.00 0.00 0.00 85 1012.7
20260503081017 41 0.0 1.0 0.00 0.00 0.00 85 1012.7
20260503080517 41 0.0 1.0 0.00 0.00 0.00 85 1012.6
20260503072517 41 0.0 0.0 0.00 0.00 0.00 86 1012.8
20260503072016 41 0.0 0.0 0.00 0.00 0.00 86 1012.8
20260503071517 41 0.0 0.0 0.00 0.00 0.00 86 1012.8
20260503071017 41 0.0 0.0 0.00 0.00 0.00 86 1012.8
20260503070517 41 0.0 0.0 0.00 0.00 0.00 86 1012.9
20260503055017 41 0.0 0.0 0.00 0.01 0.00 86 1013.5
20260503054517 41 0.0 0.0 0.00 0.01 0.00 87 1013.5
20260503054017 41 0.0 0.0 0.00 0.01 0.00 87 1013.6
20260503053516 42 0.0 0.0 0.00 0.01 0.00 87 1013.8
20260503053017 41 0.0 0.0 0.00 0.01 0.00 87 1013.8
20260503052517 42 0.0 0.0 0.00 0.01 0.00 87 1014.0
20260503052016 41 0.0 0.0 0.00 0.01 0.00 86 1014.0
20260503051517 41 0.0 0.0 0.00 0.01 0.00 86 1014.2
20260503051017 41 0.0 0.0 0.00 0.01 0.00 85 1014.2
20260503050516 41 0.0 0.0 0.00 0.01 0.00 86 1014.3
20260503050016 42 0.0 0.0 0.00 0.01 0.00 86 1014.3
20260503045517 42 0.0 0.0 0.00 0.01 0.00 86 1014.4
20260503045017 42 0.0 0.0 0.00 0.01 0.00 86 1014.4
20260503044517 42 0.0 0.0 0.00 0.01 0.00 86 1014.5
20260503044017 42 0.0 1.0 0.00 0.01 0.00 85 1014.5
20260503043517 42 0.0 0.0 0.00 0.01 0.00 85 1014.7
20260503043017 42 0.0 1.0 0.00 0.01 0.00 84 1014.8
20260503042516 42 23 1.0 2.0 0.00 0.01 0.00 84 1014.9
20260503042016 42 0.0 1.0 0.00 0.01 0.00 83 1015.0
20260503041517 41 0.0 0.0 0.00 0.01 0.00 81 1014.8
20260503041017 41 0.0 0.0 0.00 0.01 0.00 82 1014.9
20260503040517 41 0.0 0.0 0.00 0.01 0.00 83 1014.9
20260503040017 42 0.0 0.0 0.00 0.01 0.00 83 1015.1
20260503035516 42 0.0 0.0 0.00 0.01 0.00 82 1015.2
20260503035016 42 0.0 0.0 0.00 0.01 0.00 82 1015.2
20260503034516 42 0.0 0.0 0.00 0.01 0.00 82 1015.3
20260503034017 41 0.0 0.0 0.00 0.01 0.00 82 1015.4
20260503033517 41 0.0 0.0 0.00 0.01 0.00 81 1015.3
20260503033017 41 0.0 0.0 0.00 0.01 0.00 80 1015.4
20260503032516 41 0.0 0.0 0.00 0.01 0.00 79 1015.4
20260503032016 41 0.0 0.0 0.00 0.01 0.00 80 1015.4